Time,TemperatureF,DewpointF,PressureIn,WindDirection,WindDirectionDegrees,WindSpeedMPH,WindSpeedGustMPH,Humidity,HourlyPrecipIn,Conditions,Clouds,dailyrainin,SoftwareType,DateUTC
2013-10-05 00:00:00,53.0,50.4,29.93,South,180,4.0,16.0,91,0.00,,,-99.99,Weather View 32 v60,2013-10-05 05:00:00,
2013-10-05 00:05:00,53.0,50.4,29.93,ESE,112,10.0,16.0,91,0.00,,,-99.99,Weather View 32 v60,2013-10-05 05:05:00,
2013-10-05 00:10:00,53.0,50.4,29.94,ENE,68,8.0,16.0,91,0.00,,,-99.99,Weather View 32 v60,2013-10-05 05:10:00,
2013-10-05 00:20:00,53.0,50.4,29.94,East,90,6.0,16.0,91,0.05,,,-99.99,Weather View 32 v60,2013-10-05 05:20:00,
2013-10-05 00:25:00,53.0,50.4,29.94,East,90,5.0,16.0,91,0.07,,,-99.99,Weather View 32 v60,2013-10-05 05:25:00,
2013-10-05 00:30:00,53.0,50.4,29.92,NE,45,6.0,16.0,91,0.09,,,-99.99,Weather View 32 v60,2013-10-05 05:30:00,
2013-10-05 00:35:00,53.0,50.4,29.93,East,90,3.0,16.0,91,0.12,,,-99.99,Weather View 32 v60,2013-10-05 05:35:00,
2013-10-05 00:40:00,53.0,50.4,29.93,ENE,68,8.0,16.0,91,0.14,,,-99.99,Weather View 32 v60,2013-10-05 05:40:00,
2013-10-05 00:45:00,53.0,50.4,29.93,ESE,112,5.0,16.0,91,0.16,,,-99.99,Weather View 32 v60,2013-10-05 05:45:00,
2013-10-05 00:50:00,53.0,50.4,29.93,SE,135,5.0,16.0,91,0.17,,,-99.99,Weather View 32 v60,2013-10-05 05:50:00,
2013-10-05 00:55:00,53.0,50.4,29.93,South,180,3.0,16.0,91,0.19,,,-99.99,Weather View 32 v60,2013-10-05 05:55:00,
2013-10-05 01:00:00,53.0,50.4,29.94,East,90,11.0,16.0,91,0.21,,,-99.99,Weather View 32 v60,2013-10-05 06:00:00,
2013-10-05 01:05:00,53.0,50.7,29.93,ESE,112,10.0,16.0,92,0.26,,,-99.99,Weather View 32 v60,2013-10-05 06:05:00,
2013-10-05 01:10:00,53.0,50.7,29.93,East,90,8.0,16.0,92,0.29,,,-99.99,Weather View 32 v60,2013-10-05 06:10:00,
2013-10-05 01:15:00,53.0,50.7,29.94,SE,135,3.0,16.0,92,0.34,,,-99.99,Weather View 32 v60,2013-10-05 06:15:00,
2013-10-05 01:20:00,53.0,50.7,29.92,East,90,6.0,16.0,92,0.35,,,-99.99,Weather View 32 v60,2013-10-05 06:20:00,
2013-10-05 01:25:00,53.0,50.7,29.92,NNE,22,6.0,16.0,92,0.35,,,-99.99,Weather View 32 v60,2013-10-05 06:25:00,
2013-10-05 01:30:00,53.0,50.7,29.92,East,90,3.0,16.0,92,0.34,,,-99.99,Weather View 32 v60,2013-10-05 06:30:00,
2013-10-05 01:35:00,53.0,50.7,29.89,East,90,6.0,14.0,92,0.32,,,-99.99,Weather View 32 v60,2013-10-05 06:35:00,
2013-10-05 01:40:00,53.0,50.7,29.89,SSE,158,4.0,14.0,92,0.31,,,-99.99,Weather View 32 v60,2013-10-05 06:40:00,
2013-10-05 01:45:00,54.0,51.7,29.89,ENE,68,3.0,14.0,92,0.30,,,-99.99,Weather View 32 v60,2013-10-05 06:45:00,
2013-10-05 01:50:00,54.0,51.7,29.90,NNE,22,2.0,19.0,92,0.29,,,-99.99,Weather View 32 v60,2013-10-05 06:50:00,
2013-10-05 01:55:00,54.0,51.7,29.90,ESE,112,3.0,19.0,92,0.27,,,-99.99,Weather View 32 v60,2013-10-05 06:55:00,
2013-10-05 02:00:00,54.0,51.7,29.90,ESE,112,10.0,19.0,92,0.25,,,-99.99,Weather View 32 v60,2013-10-05 07:00:00,
2013-10-05 02:05:00,54.0,51.7,29.90,East,90,7.0,19.0,92,0.20,,,-99.99,Weather View 32 v60,2013-10-05 07:05:00,
2013-10-05 02:10:00,54.0,51.7,29.89,East,90,8.0,19.0,92,0.17,,,-99.99,Weather View 32 v60,2013-10-05 07:10:00,
2013-10-05 02:15:00,54.0,51.7,29.89,East,90,8.0,19.0,92,0.11,,,-99.99,Weather View 32 v60,2013-10-05 07:15:00,
2013-10-05 02:20:00,54.0,51.7,29.89,SE,135,2.0,19.0,92,0.06,,,-99.99,Weather View 32 v60,2013-10-05 07:20:00,
2013-10-05 02:25:00,54.0,51.7,29.89,East,90,4.0,19.0,92,0.04,,,-99.99,Weather View 32 v60,2013-10-05 07:25:00,
2013-10-05 02:30:00,54.0,51.7,29.89,East,90,4.0,19.0,92,0.03,,,-99.99,Weather View 32 v60,2013-10-05 07:30:00,
2013-10-05 02:35:00,54.0,51.7,29.89,East,90,6.0,19.0,92,0.02,,,-99.99,Weather View 32 v60,2013-10-05 07:35:00,
2013-10-05 02:40:00,53.0,50.7,29.89,East,90,7.0,19.0,92,0.01,,,-99.99,Weather View 32 v60,2013-10-05 07:40:00,
2013-10-05 02:50:00,53.0,50.7,29.89,ESE,112,5.0,14.0,92,0.00,,,-99.99,Weather View 32 v60,2013-10-05 07:50:00,
2013-10-05 02:55:00,53.0,50.7,29.89,ESE,112,2.0,14.0,92,0.00,,,-99.99,Weather View 32 v60,2013-10-05 07:55:00,
2013-10-05 03:00:00,53.0,50.7,29.89,East,90,3.0,14.0,92,0.00,,,-99.99,Weather View 32 v60,2013-10-05 08:00:00,
2013-10-05 03:05:00,53.0,50.7,29.89,ESE,112,6.0,14.0,92,0.00,,,-99.99,Weather View 32 v60,2013-10-05 08:05:00,
2013-10-05 03:10:00,53.0,50.7,29.89,WSW,248,1.0,14.0,92,0.00,,,-99.99,Weather View 32 v60,2013-10-05 08:10:00,
2013-10-05 03:15:00,53.0,50.7,29.89,ENE,68,3.0,11.0,92,0.00,,,-99.99,Weather View 32 v60,2013-10-05 08:15:00,
2013-10-05 03:20:00,53.0,50.7,29.88,East,90,5.0,11.0,92,0.00,,,-99.99,Weather View 32 v60,2013-10-05 08:20:00,
2013-10-05 03:25:00,53.0,50.7,29.88,SE,135,3.0,11.0,92,0.00,,,-99.99,Weather View 32 v60,2013-10-05 08:25:00,
2013-10-05 03:30:00,53.0,50.7,29.88,East,90,6.0,10.0,92,0.00,,,-99.99,Weather View 32 v60,2013-10-05 08:30:00,
2013-10-05 03:35:00,53.0,50.7,29.88,WSW,248,3.0,10.0,92,0.00,,,-99.99,Weather View 32 v60,2013-10-05 08:35:00,
2013-10-05 03:40:00,53.0,50.7,29.88,ENE,68,5.0,10.0,92,0.00,,,-99.99,Weather View 32 v60,2013-10-05 08:40:00,
2013-10-05 03:45:00,53.0,50.7,29.88,ESE,112,5.0,13.0,92,0.00,,,-99.99,Weather View 32 v60,2013-10-05 08:45:00,
2013-10-05 03:50:00,53.0,50.7,29.88,SE,135,4.0,13.0,92,0.00,,,-99.99,Weather View 32 v60,2013-10-05 08:50:00,
2013-10-05 03:55:00,52.0,49.7,29.88,ESE,112,4.0,13.0,92,0.00,,,-99.99,Weather View 32 v60,2013-10-05 08:55:00,
2013-10-05 04:00:00,52.0,49.7,29.88,NE,45,3.0,13.0,92,0.00,,,-99.99,Weather View 32 v60,2013-10-05 09:00:00,
2013-10-05 04:05:00,52.0,49.7,29.88,NE,45,2.0,13.0,92,0.00,,,-99.99,Weather View 32 v60,2013-10-05 09:05:00,
2013-10-05 04:10:00,52.0,49.7,29.88,ESE,112,5.0,13.0,92,0.00,,,-99.99,Weather View 32 v60,2013-10-05 09:10:00,
2013-10-05 04:15:00,52.0,49.7,29.88,NE,45,5.0,13.0,92,0.00,,,-99.99,Weather View 32 v60,2013-10-05 09:15:00,
2013-10-05 04:20:00,52.0,49.7,29.87,NE,45,4.0,16.0,92,0.00,,,-99.99,Weather View 32 v60,2013-10-05 09:20:00,
2013-10-05 04:25:00,52.0,49.7,29.87,East,90,4.0,16.0,92,0.00,,,-99.99,Weather View 32 v60,2013-10-05 09:25:00,
2013-10-05 04:30:00,51.0,48.8,29.89,East,90,5.0,16.0,92,0.00,,,-99.99,Weather View 32 v60,2013-10-05 09:30:00,
2013-10-05 04:35:00,51.0,48.8,29.89,ESE,112,8.0,16.0,92,0.00,,,-99.99,Weather View 32 v60,2013-10-05 09:35:00,
2013-10-05 04:40:00,51.0,48.8,29.89,NE,45,5.0,16.0,92,0.00,,,-99.99,Weather View 32 v60,2013-10-05 09:40:00,
2013-10-05 04:50:00,51.0,48.8,29.89,ESE,112,8.0,16.0,92,0.00,,,-99.99,Weather View 32 v60,2013-10-05 09:50:00,
2013-10-05 05:00:00,51.0,48.8,29.89,East,90,5.0,16.0,92,0.00,,,-99.99,Weather View 32 v60,2013-10-05 10:00:00,
2013-10-05 05:05:00,51.0,48.8,29.89,ENE,68,6.0,16.0,92,0.00,,,-99.99,Weather View 32 v60,2013-10-05 10:05:00,
2013-10-05 05:10:00,51.0,48.8,29.89,SSE,158,4.0,16.0,92,0.00,,,-99.99,Weather View 32 v60,2013-10-05 10:10:00,
2013-10-05 05:15:00,51.0,49.0,29.89,ESE,112,2.0,16.0,93,0.00,,,-99.99,Weather View 32 v60,2013-10-05 10:15:00,
2013-10-05 05:20:00,51.0,49.0,29.89,NE,45,9.0,13.0,93,0.00,,,-99.99,Weather View 32 v60,2013-10-05 10:20:00,
2013-10-05 05:25:00,51.0,49.0,29.89,East,90,7.0,13.0,93,0.00,,,-99.99,Weather View 32 v60,2013-10-05 10:25:00,
2013-10-05 05:30:00,51.0,49.0,29.88,East,90,3.0,15.0,93,0.00,,,-99.99,Weather View 32 v60,2013-10-05 10:30:00,
2013-10-05 05:40:00,51.0,49.0,29.90,ENE,68,7.0,15.0,93,0.00,,,-99.99,Weather View 32 v60,2013-10-05 10:40:00,
2013-10-05 05:45:00,51.0,49.0,29.90,ESE,112,10.0,15.0,93,0.00,,,-99.99,Weather View 32 v60,2013-10-05 10:45:00,
2013-10-05 05:50:00,51.0,49.0,29.90,NE,45,7.0,15.0,93,0.00,,,-99.99,Weather View 32 v60,2013-10-05 10:50:00,
2013-10-05 05:55:00,51.0,49.0,29.90,NNE,22,5.0,15.0,93,0.00,,,-99.99,Weather View 32 v60,2013-10-05 10:55:00,
2013-10-05 06:00:00,51.0,49.0,29.90,East,90,8.0,15.0,93,0.00,,,-99.99,Weather View 32 v60,2013-10-05 11:00:00,
2013-10-05 06:05:00,51.0,49.0,29.89,East,90,3.0,15.0,93,0.00,,,-99.99,Weather View 32 v60,2013-10-05 11:05:00,
2013-10-05 06:10:00,51.0,49.0,29.89,SE,135,5.0,15.0,93,0.00,,,-99.99,Weather View 32 v60,2013-10-05 11:10:00,
2013-10-05 06:20:00,51.0,49.0,29.89,East,90,5.0,15.0,93,0.00,,,-99.99,Weather View 32 v60,2013-10-05 11:20:00,
2013-10-05 06:25:00,51.0,49.0,29.89,NE,45,5.0,15.0,93,0.00,,,-99.99,Weather View 32 v60,2013-10-05 11:25:00,
2013-10-05 06:35:00,51.0,49.0,29.88,SSE,158,7.0,15.0,93,0.00,,,-99.99,Weather View 32 v60,2013-10-05 11:35:00,
2013-10-05 06:40:00,51.0,49.0,29.89,East,90,8.0,15.0,93,0.00,,,-99.99,Weather View 32 v60,2013-10-05 11:40:00,
2013-10-05 06:45:00,51.0,49.0,29.88,East,90,6.0,15.0,93,0.00,,,-99.99,Weather View 32 v60,2013-10-05 11:45:00,
2013-10-05 06:50:00,51.0,49.0,29.88,ESE,112,5.0,15.0,93,0.00,,,-99.99,Weather View 32 v60,2013-10-05 11:50:00,
2013-10-05 06:55:00,51.0,49.0,29.88,East,90,6.0,15.0,93,0.00,,,-99.99,Weather View 32 v60,2013-10-05 11:55:00,
2013-10-05 07:05:00,51.0,49.0,29.88,SE,135,6.0,16.0,93,0.00,,,-99.99,Weather View 32 v60,2013-10-05 12:05:00,
2013-10-05 07:10:00,51.0,49.0,29.88,East,90,6.0,16.0,93,0.00,,,-99.99,Weather View 32 v60,2013-10-05 12:10:00,
2013-10-05 07:15:00,51.0,49.0,29.89,ESE,112,6.0,16.0,93,0.00,,,-99.99,Weather View 32 v60,2013-10-05 12:15:00,
2013-10-05 07:20:00,51.0,49.0,29.89,SSE,158,4.0,16.0,93,0.00,,,-99.99,Weather View 32 v60,2013-10-05 12:20:00,
2013-10-05 07:25:00,51.0,49.0,29.89,East,90,3.0,16.0,93,0.00,,,-99.99,Weather View 32 v60,2013-10-05 12:25:00,
2013-10-05 07:30:00,51.0,49.0,29.89,East,90,2.0,16.0,93,0.00,,,-99.99,Weather View 32 v60,2013-10-05 12:30:00,
2013-10-05 07:40:00,51.0,49.0,29.88,ESE,112,6.0,16.0,93,0.00,,,-99.99,Weather View 32 v60,2013-10-05 12:40:00,
2013-10-05 07:45:00,51.0,49.0,29.88,ENE,68,5.0,16.0,93,0.00,,,-99.99,Weather View 32 v60,2013-10-05 12:45:00,
2013-10-05 07:50:00,51.0,49.0,29.88,East,90,5.0,16.0,93,0.00,,,-99.99,Weather View 32 v60,2013-10-05 12:50:00,
2013-10-05 07:55:00,51.0,49.0,29.88,SSE,158,8.0,16.0,93,0.00,,,-99.99,Weather View 32 v60,2013-10-05 12:55:00,
2013-10-05 08:00:00,51.0,49.0,29.88,ESE,112,10.0,18.0,93,0.00,,,-99.99,Weather View 32 v60,2013-10-05 13:00:00,
2013-10-05 08:05:00,51.0,49.0,29.88,ENE,68,7.0,18.0,93,0.00,,,-99.99,Weather View 32 v60,2013-10-05 13:05:00,
2013-10-05 08:15:00,52.0,50.0,29.88,NE,45,8.0,18.0,93,0.00,,,-99.99,Weather View 32 v60,2013-10-05 13:15:00,
2013-10-05 08:20:00,52.0,50.0,29.89,SE,135,2.0,18.0,93,0.00,,,-99.99,Weather View 32 v60,2013-10-05 13:20:00,
2013-10-05 08:25:00,52.0,50.0,29.88,ESE,112,8.0,18.0,93,0.00,,,-99.99,Weather View 32 v60,2013-10-05 13:25:00,
2013-10-05 08:30:00,52.0,50.0,29.88,SE,135,3.0,18.0,93,0.00,,,-99.99,Weather View 32 v60,2013-10-05 13:30:00,
2013-10-05 08:35:00,52.0,50.0,29.87,SE,135,8.0,18.0,93,0.00,,,-99.99,Weather View 32 v60,2013-10-05 13:35:00,
2013-10-05 08:40:00,52.0,50.0,29.87,ESE,112,6.0,18.0,93,0.00,,,-99.99,Weather View 32 v60,2013-10-05 13:40:00,
2013-10-05 08:45:00,52.0,50.0,29.87,ESE,112,5.0,18.0,93,0.00,,,-99.99,Weather View 32 v60,2013-10-05 13:45:00,
2013-10-05 08:50:00,52.0,50.0,29.87,SE,135,3.0,18.0,93,0.00,,,-99.99,Weather View 32 v60,2013-10-05 13:50:00,
2013-10-05 08:55:00,52.0,50.0,29.87,SE,135,4.0,18.0,93,0.00,,,-99.99,Weather View 32 v60,2013-10-05 13:55:00,
2013-10-05 09:05:00,52.0,50.0,29.88,ESE,112,3.0,14.0,93,0.00,,,-99.99,Weather View 32 v60,2013-10-05 14:05:00,
2013-10-05 09:10:00,52.0,50.0,29.88,ESE,112,6.0,14.0,93,0.00,,,-99.99,Weather View 32 v60,2013-10-05 14:10:00,
2013-10-05 09:15:00,52.0,50.0,29.88,SSE,158,3.0,14.0,93,0.00,,,-99.99,Weather View 32 v60,2013-10-05 14:15:00,
2013-10-05 09:20:00,52.0,50.0,29.88,East,90,4.0,14.0,93,0.00,,,-99.99,Weather View 32 v60,2013-10-05 14:20:00,
2013-10-05 09:25:00,52.0,50.0,29.87,NE,45,3.0,14.0,93,0.00,,,-99.99,Weather View 32 v60,2013-10-05 14:25:00,
2013-10-05 09:30:00,52.0,50.0,29.88,ESE,112,5.0,14.0,93,0.00,,,-99.99,Weather View 32 v60,2013-10-05 14:30:00,
2013-10-05 09:35:00,52.0,50.0,29.88,East,90,8.0,14.0,93,0.00,,,-99.99,Weather View 32 v60,2013-10-05 14:35:00,
2013-10-05 09:40:00,52.0,50.0,29.88,SE,135,2.0,14.0,93,0.00,,,-99.99,Weather View 32 v60,2013-10-05 14:40:00,
2013-10-05 09:45:00,52.0,50.0,29.88,NNE,22,3.0,14.0,93,0.00,,,-99.99,Weather View 32 v60,2013-10-05 14:45:00,
2013-10-05 09:55:00,53.0,51.0,29.88,ESE,112,8.0,13.0,93,0.00,,,-99.99,Weather View 32 v60,2013-10-05 14:55:00,
2013-10-05 10:00:00,53.0,51.0,29.88,SE,135,4.0,13.0,93,0.00,,,-99.99,Weather View 32 v60,2013-10-05 15:00:00,
2013-10-05 10:05:00,53.0,51.0,29.88,South,180,3.0,13.0,93,0.00,,,-99.99,Weather View 32 v60,2013-10-05 15:05:00,
2013-10-05 10:15:00,53.0,51.0,29.89,East,90,5.0,13.0,93,0.00,,,-99.99,Weather View 32 v60,2013-10-05 15:15:00,
2013-10-05 10:20:00,53.0,51.0,29.89,SE,135,4.0,13.0,93,0.00,,,-99.99,Weather View 32 v60,2013-10-05 15:20:00,
2013-10-05 10:25:00,53.0,51.0,29.89,SE,135,4.0,13.0,93,0.00,,,-99.99,Weather View 32 v60,2013-10-05 15:25:00,
2013-10-05 10:35:00,53.0,51.0,29.89,East,90,6.0,13.0,93,0.00,,,-99.99,Weather View 32 v60,2013-10-05 15:35:00,
2013-10-05 10:40:00,53.0,51.0,29.89,ESE,112,2.0,13.0,93,0.00,,,-99.99,Weather View 32 v60,2013-10-05 15:40:00,
2013-10-05 10:45:00,53.0,51.0,29.89,SSE,158,5.0,12.0,93,0.00,,,-99.99,Weather View 32 v60,2013-10-05 15:45:00,
2013-10-05 10:50:00,53.0,51.0,29.89,ENE,68,3.0,12.0,93,0.00,,,-99.99,Weather View 32 v60,2013-10-05 15:50:00,
2013-10-05 10:55:00,53.0,51.0,29.89,East,90,3.0,12.0,93,0.00,,,-99.99,Weather View 32 v60,2013-10-05 15:55:00,
2013-10-05 11:05:00,54.0,52.0,29.89,East,90,3.0,12.0,93,0.01,,,-99.99,Weather View 32 v60,2013-10-05 16:05:00,
2013-10-05 11:10:00,54.0,52.0,29.89,ENE,68,5.0,11.0,93,0.01,,,-99.99,Weather View 32 v60,2013-10-05 16:10:00,
2013-10-05 11:15:00,54.0,52.0,29.88,East,90,3.0,11.0,93,0.01,,,-99.99,Weather View 32 v60,2013-10-05 16:15:00,
2013-10-05 11:20:00,54.0,52.0,29.88,SE,135,5.0,11.0,93,0.01,,,-99.99,Weather View 32 v60,2013-10-05 16:20:00,
2013-10-05 11:25:00,54.0,52.0,29.88,SE,135,3.0,11.0,93,0.01,,,-99.99,Weather View 32 v60,2013-10-05 16:25:00,
2013-10-05 11:30:00,54.0,52.0,29.88,SSE,158,5.0,11.0,93,0.01,,,-99.99,Weather View 32 v60,2013-10-05 16:30:00,
2013-10-05 11:35:00,54.0,52.0,29.88,SE,135,3.0,11.0,93,0.01,,,-99.99,Weather View 32 v60,2013-10-05 16:35:00,
2013-10-05 11:44:00,54.0,52.0,29.87,SE,135,4.0,11.0,93,0.02,,,-99.99,Weather View 32 v60,2013-10-05 16:44:00,
2013-10-05 11:50:00,54.0,52.0,29.87,SSE,158,3.0,11.0,93,0.02,,,-99.99,Weather View 32 v60,2013-10-05 16:50:00,
2013-10-05 11:55:00,55.0,53.0,29.87,East,90,6.0,11.0,93,0.02,,,-99.99,Weather View 32 v60,2013-10-05 16:55:00,
2013-10-05 12:00:00,55.0,53.0,29.87,SSE,158,10.0,10.0,93,0.01,,,-99.99,Weather View 32 v60,2013-10-05 17:00:00,
2013-10-05 12:05:00,55.0,53.0,29.87,ENE,68,5.0,10.0,93,0.01,,,-99.99,Weather View 32 v60,2013-10-05 17:05:00,
2013-10-05 12:10:00,55.0,53.0,29.87,ESE,112,3.0,10.0,93,0.01,,,-99.99,Weather View 32 v60,2013-10-05 17:10:00,
2013-10-05 12:20:00,55.0,53.0,29.87,ENE,68,3.0,10.0,93,0.01,,,-99.99,Weather View 32 v60,2013-10-05 17:20:00,
2013-10-05 12:25:00,55.0,53.0,29.87,ESE,112,6.0,10.0,93,0.01,,,-99.99,Weather View 32 v60,2013-10-05 17:25:00,
2013-10-05 12:35:00,55.0,53.0,29.87,East,90,5.0,10.0,93,0.01,,,-99.99,Weather View 32 v60,2013-10-05 17:35:00,
2013-10-05 12:40:00,55.0,53.0,29.86,ESE,112,4.0,10.0,93,0.00,,,-99.99,Weather View 32 v60,2013-10-05 17:40:00,
2013-10-05 12:45:00,55.0,53.0,29.86,SW,225,2.0,13.0,93,0.00,,,-99.99,Weather View 32 v60,2013-10-05 17:45:00,
2013-10-05 12:55:00,55.0,53.0,29.85,ESE,112,10.0,13.0,93,0.00,,,-99.99,Weather View 32 v60,2013-10-05 17:55:00,
2013-10-05 13:00:00,55.0,53.0,29.85,ESE,112,5.0,13.0,93,0.00,,,-99.99,Weather View 32 v60,2013-10-05 18:00:00,
2013-10-05 13:05:00,56.0,54.0,29.85,East,90,5.0,13.0,93,0.00,,,-99.99,Weather View 32 v60,2013-10-05 18:05:00,
2013-10-05 13:15:00,56.0,54.0,29.84,NE,45,3.0,13.0,93,0.00,,,-99.99,Weather View 32 v60,2013-10-05 18:15:00,
2013-10-05 13:20:00,56.0,54.0,29.84,ESE,112,4.0,13.0,93,0.00,,,-99.99,Weather View 32 v60,2013-10-05 18:20:00,
2013-10-05 13:25:00,56.0,54.0,29.84,ESE,112,3.0,13.0,93,0.00,,,-99.99,Weather View 32 v60,2013-10-05 18:25:00,
2013-10-05 13:30:00,56.0,54.0,29.84,ENE,68,3.0,13.0,93,0.00,,,-99.99,Weather View 32 v60,2013-10-05 18:30:00,
2013-10-05 13:40:00,56.0,54.0,29.84,ESE,112,7.0,13.0,93,0.00,,,-99.99,Weather View 32 v60,2013-10-05 18:40:00,
2013-10-05 13:45:00,56.0,54.0,29.83,SSE,158,2.0,12.0,93,0.00,,,-99.99,Weather View 32 v60,2013-10-05 18:45:00,
2013-10-05 13:55:00,56.0,54.0,29.83,SE,135,6.0,12.0,93,0.00,,,-99.99,Weather View 32 v60,2013-10-05 18:55:00,
2013-10-05 14:00:00,56.0,54.0,29.82,ESE,112,7.0,11.0,93,0.00,,,-99.99,Weather View 32 v60,2013-10-05 19:00:00,
2013-10-05 14:10:00,57.0,55.0,29.82,NE,45,3.0,12.0,93,0.00,,,-99.99,Weather View 32 v60,2013-10-05 19:10:00,
2013-10-05 14:15:00,57.0,55.0,29.81,East,90,3.0,12.0,93,0.00,,,-99.99,Weather View 32 v60,2013-10-05 19:15:00,
2013-10-05 14:20:00,57.0,55.0,29.81,ESE,112,2.0,12.0,93,0.00,,,-99.99,Weather View 32 v60,2013-10-05 19:20:00,
2013-10-05 14:25:00,57.0,55.0,29.81,ESE,112,6.0,12.0,93,0.00,,,-99.99,Weather View 32 v60,2013-10-05 19:25:00,
2013-10-05 14:30:00,57.0,55.0,29.81,ESE,112,3.0,12.0,93,0.00,,,-99.99,Weather View 32 v60,2013-10-05 19:30:00,
2013-10-05 14:35:00,57.0,55.0,29.81,NE,45,7.0,12.0,93,0.00,,,-99.99,Weather View 32 v60,2013-10-05 19:35:00,
2013-10-05 14:40:00,57.0,55.0,29.81,ESE,112,8.0,12.0,93,0.00,,,-99.99,Weather View 32 v60,2013-10-05 19:40:00,
2013-10-05 14:46:00,57.0,55.0,29.80,East,90,5.0,12.0,93,0.00,,,-99.99,Weather View 32 v60,2013-10-05 19:46:00,
2013-10-05 14:55:00,57.0,55.0,29.81,SE,135,6.0,12.0,93,0.00,,,-99.99,Weather View 32 v60,2013-10-05 19:55:00,
2013-10-05 15:00:00,57.0,55.0,29.81,SE,135,3.0,13.0,93,0.00,,,-99.99,Weather View 32 v60,2013-10-05 20:00:00,
2013-10-05 15:05:00,57.0,55.0,29.81,ESE,112,3.0,13.0,93,0.00,,,-99.99,Weather View 32 v60,2013-10-05 20:05:00,
2013-10-05 15:10:00,57.0,55.0,29.81,East,90,7.0,13.0,93,0.00,,,-99.99,Weather View 32 v60,2013-10-05 20:10:00,
2013-10-05 15:15:00,57.0,55.0,29.81,NE,45,3.0,13.0,93,0.01,,,-99.99,Weather View 32 v60,2013-10-05 20:15:00,
2013-10-05 15:20:00,57.0,55.0,29.82,NNE,22,1.0,13.0,93,0.01,,,-99.99,Weather View 32 v60,2013-10-05 20:20:00,
2013-10-05 15:25:00,57.0,55.0,29.82,SSW,202,1.0,13.0,93,0.01,,,-99.99,Weather View 32 v60,2013-10-05 20:25:00,
2013-10-05 15:30:00,57.0,55.0,29.82,SSW,202,1.0,13.0,93,0.01,,,-99.99,Weather View 32 v60,2013-10-05 20:30:00,
2013-10-05 15:35:00,57.0,55.0,29.82,East,90,3.0,13.0,93,0.01,,,-99.99,Weather View 32 v60,2013-10-05 20:35:00,
2013-10-05 15:40:00,57.0,55.0,29.82,East,90,5.0,13.0,93,0.01,,,-99.99,Weather View 32 v60,2013-10-05 20:40:00,
2013-10-05 15:45:00,57.0,55.0,29.81,ESE,112,3.0,13.0,93,0.01,,,-99.99,Weather View 32 v60,2013-10-05 20:45:00,
2013-10-05 15:50:00,57.0,55.0,29.80,East,90,6.0,13.0,93,0.02,,,-99.99,Weather View 32 v60,2013-10-05 20:50:00,
2013-10-05 15:55:00,57.0,55.0,29.80,WSW,248,2.0,13.0,93,0.03,,,-99.99,Weather View 32 v60,2013-10-05 20:55:00,
2013-10-05 16:00:00,57.0,55.0,29.80,ESE,112,3.0,9.0,93,0.03,,,-99.99,Weather View 32 v60,2013-10-05 21:00:00,
2013-10-05 16:05:00,56.0,54.0,29.79,WNW,292,1.0,9.0,93,0.04,,,-99.99,Weather View 32 v60,2013-10-05 21:05:00,
2013-10-05 16:15:00,56.0,54.0,29.79,NE,45,4.0,10.0,93,0.03,,,-99.99,Weather View 32 v60,2013-10-05 21:15:00,
2013-10-05 16:20:00,56.0,54.0,29.79,ENE,68,5.0,13.0,93,0.03,,,-99.99,Weather View 32 v60,2013-10-05 21:20:00,
2013-10-05 16:25:00,56.0,54.0,29.80,East,90,2.0,13.0,93,0.03,,,-99.99,Weather View 32 v60,2013-10-05 21:25:00,
2013-10-05 16:30:00,56.0,54.0,29.80,SSE,158,1.0,13.0,93,0.04,,,-99.99,Weather View 32 v60,2013-10-05 21:30:00,
2013-10-05 16:35:00,56.0,54.0,29.79,East,90,4.0,13.0,93,0.04,,,-99.99,Weather View 32 v60,2013-10-05 21:35:00,
2013-10-05 16:45:00,55.0,53.0,29.81,SSE,158,5.0,13.0,93,0.04,,,-99.99,Weather View 32 v60,2013-10-05 21:45:00,
2013-10-05 16:50:00,55.0,53.0,29.80,ESE,112,5.0,13.0,93,0.04,,,-99.99,Weather View 32 v60,2013-10-05 21:50:00,
2013-10-05 16:55:00,55.0,53.0,29.80,ENE,68,6.0,13.0,93,0.03,,,-99.99,Weather View 32 v60,2013-10-05 21:55:00,
2013-10-05 17:00:00,55.0,53.0,29.79,East,90,5.0,13.0,93,0.04,,,-99.99,Weather View 32 v60,2013-10-05 22:00:00,
2013-10-05 17:05:00,55.0,53.0,29.78,NNE,22,6.0,13.0,93,0.04,,,-99.99,Weather View 32 v60,2013-10-05 22:05:00,
2013-10-05 17:10:00,55.0,53.0,29.79,NE,45,3.0,13.0,93,0.05,,,-99.99,Weather View 32 v60,2013-10-05 22:10:00,
2013-10-05 17:15:00,55.0,53.0,29.78,NNE,22,3.0,13.0,93,0.06,,,-99.99,Weather View 32 v60,2013-10-05 22:15:00,
2013-10-05 17:25:00,55.0,53.0,29.78,NNE,22,5.0,11.0,93,0.08,,,-99.99,Weather View 32 v60,2013-10-05 22:25:00,
2013-10-05 17:30:00,55.0,53.0,29.78,ENE,68,5.0,11.0,93,0.07,,,-99.99,Weather View 32 v60,2013-10-05 22:30:00,
2013-10-05 17:35:00,55.0,53.0,29.77,NE,45,7.0,11.0,93,0.07,,,-99.99,Weather View 32 v60,2013-10-05 22:35:00,
2013-10-05 17:40:00,55.0,53.0,29.77,East,90,5.0,11.0,93,0.07,,,-99.99,Weather View 32 v60,2013-10-05 22:40:00,
2013-10-05 17:47:00,54.0,52.0,29.77,East,90,6.0,11.0,93,0.07,,,-99.99,Weather View 32 v60,2013-10-05 22:47:00,
2013-10-05 17:55:00,54.0,52.0,29.77,ESE,112,3.0,11.0,93,0.06,,,-99.99,Weather View 32 v60,2013-10-05 22:55:00,
2013-10-05 18:05:00,54.0,52.0,29.77,East,90,3.0,12.0,93,0.05,,,-99.99,Weather View 32 v60,2013-10-05 23:05:00,
2013-10-05 18:10:00,54.0,52.0,29.78,East,90,3.0,12.0,93,0.04,,,-99.99,Weather View 32 v60,2013-10-05 23:10:00,
2013-10-05 18:15:00,54.0,52.0,29.78,East,90,4.0,12.0,93,0.03,,,-99.99,Weather View 32 v60,2013-10-05 23:15:00,
2013-10-05 18:20:00,54.0,52.0,29.77,SE,135,3.0,12.0,93,0.03,,,-99.99,Weather View 32 v60,2013-10-05 23:20:00,
2013-10-05 18:25:00,54.0,52.0,29.78,NE,45,1.0,12.0,93,0.03,,,-99.99,Weather View 32 v60,2013-10-05 23:25:00,
2013-10-05 18:35:00,54.0,52.0,29.78,NNE,22,3.0,12.0,93,0.04,,,-99.99,Weather View 32 v60,2013-10-05 23:35:00,
2013-10-05 18:40:00,54.0,52.0,29.78,East,90,4.0,12.0,93,0.04,,,-99.99,Weather View 32 v60,2013-10-05 23:40:00,
2013-10-05 18:45:00,54.0,52.0,29.77,ENE,68,5.0,12.0,93,0.04,,,-99.99,Weather View 32 v60,2013-10-05 23:45:00,
2013-10-05 18:50:00,54.0,52.0,29.77,SE,135,1.0,12.0,93,0.05,,,-99.99,Weather View 32 v60,2013-10-05 23:50:00,
2013-10-05 18:55:00,54.0,52.0,29.78,ESE,112,4.0,12.0,93,0.06,,,-99.99,Weather View 32 v60,2013-10-05 23:55:00,
2013-10-05 19:00:00,53.0,51.0,29.78,SE,135,2.0,12.0,93,0.05,,,-99.99,Weather View 32 v60,2013-10-06 00:00:00,
2013-10-05 19:05:00,53.0,51.0,29.79,SE,135,1.0,11.0,93,0.06,,,-99.99,Weather View 32 v60,2013-10-06 00:05:00,
2013-10-05 19:10:00,53.0,51.0,29.78,NNE,22,5.0,11.0,93,0.07,,,-99.99,Weather View 32 v60,2013-10-06 00:10:00,
2013-10-05 19:15:00,53.0,51.0,29.80,SSW,202,1.0,10.0,93,0.08,,,-99.99,Weather View 32 v60,2013-10-06 00:15:00,
2013-10-05 19:25:00,53.0,51.3,29.80,East,90,3.0,10.0,94,0.13,,,-99.99,Weather View 32 v60,2013-10-06 00:25:00,
2013-10-05 19:30:00,53.0,51.3,29.80,WNW,292,2.0,10.0,94,0.18,,,-99.99,Weather View 32 v60,2013-10-06 00:30:00,
2013-10-05 19:35:00,53.0,51.3,29.79,North,0,3.0,10.0,94,0.18,,,-99.99,Weather View 32 v60,2013-10-06 00:35:00,
2013-10-05 19:45:00,53.0,51.3,29.78,NNW,338,4.0,10.0,94,0.20,,,-99.99,Weather View 32 v60,2013-10-06 00:45:00,
2013-10-05 19:50:00,53.0,51.0,29.78,WNW,292,2.0,9.0,93,0.20,,,-99.99,Weather View 32 v60,2013-10-06 00:50:00,
2013-10-05 19:55:00,53.0,51.3,29.80,West,270,1.0,9.0,94,0.19,,,-99.99,Weather View 32 v60,2013-10-06 00:55:00,
2013-10-05 20:00:00,53.0,51.3,29.81,NW,315,5.0,9.0,94,0.19,,,-99.99,Weather View 32 v60,2013-10-06 01:00:00,
2013-10-05 20:05:00,53.0,51.3,29.79,NNE,22,4.0,8.0,94,0.18,,,-99.99,Weather View 32 v60,2013-10-06 01:05:00,
2013-10-05 20:10:00,52.0,50.3,29.79,North,0,2.0,8.0,94,0.19,,,-99.99,Weather View 32 v60,2013-10-06 01:10:00,
2013-10-05 20:20:00,52.0,50.3,29.78,North,0,2.0,8.0,94,0.19,,,-99.99,Weather View 32 v60,2013-10-06 01:20:00,
2013-10-05 20:25:00,52.0,50.3,29.78,NNW,338,3.0,8.0,94,0.14,,,-99.99,Weather View 32 v60,2013-10-06 01:25:00,
2013-10-05 20:35:00,51.0,49.3,29.78,North,0,6.0,8.0,94,0.08,,,-99.99,Weather View 32 v60,2013-10-06 01:35:00,
2013-10-05 20:40:00,51.0,49.3,29.78,NE,45,4.0,8.0,94,0.08,,,-99.99,Weather View 32 v60,2013-10-06 01:40:00,
2013-10-05 20:45:00,51.0,49.3,29.78,NE,45,6.0,8.0,94,0.07,,,-99.99,Weather View 32 v60,2013-10-06 01:45:00,
2013-10-05 20:50:00,51.0,49.3,29.77,NW,315,3.0,10.0,94,0.06,,,-99.99,Weather View 32 v60,2013-10-06 01:50:00,
2013-10-05 21:00:00,51.0,49.3,29.77,East,90,5.0,10.0,94,0.09,,,-99.99,Weather View 32 v60,2013-10-06 02:00:00,
2013-10-05 21:05:00,51.0,49.3,29.76,ENE,68,8.0,10.0,94,0.10,,,-99.99,Weather View 32 v60,2013-10-06 02:05:00,
2013-10-05 21:10:00,50.0,48.3,29.74,NE,45,3.0,12.0,94,0.08,,,-99.99,Weather View 32 v60,2013-10-06 02:10:00,
2013-10-05 21:15:00,50.0,48.3,29.74,ESE,112,6.0,12.0,94,0.06,,,-99.99,Weather View 32 v60,2013-10-06 02:15:00,
2013-10-05 21:20:00,50.0,48.3,29.74,East,90,6.0,13.0,94,0.06,,,-99.99,Weather View 32 v60,2013-10-06 02:20:00,
2013-10-05 21:25:00,50.0,48.3,29.75,West,270,1.0,13.0,94,0.06,,,-99.99,Weather View 32 v60,2013-10-06 02:25:00,
2013-10-05 21:30:00,50.0,48.3,29.75,SE,135,5.0,13.0,94,0.06,,,-99.99,Weather View 32 v60,2013-10-06 02:30:00,
2013-10-05 21:35:00,50.0,48.3,29.75,East,90,4.0,13.0,94,0.06,,,-99.99,Weather View 32 v60,2013-10-06 02:35:00,
2013-10-05 21:40:00,50.0,48.3,29.76,East,90,3.0,13.0,94,0.05,,,-99.99,Weather View 32 v60,2013-10-06 02:40:00,
2013-10-05 21:45:00,50.0,48.3,29.78,SE,135,1.0,13.0,94,0.05,,,-99.99,Weather View 32 v60,2013-10-06 02:45:00,
2013-10-05 21:50:00,50.0,48.3,29.78,NE,45,2.0,13.0,94,0.05,,,-99.99,Weather View 32 v60,2013-10-06 02:50:00,
2013-10-05 21:55:00,50.0,48.3,29.78,SW,225,1.0,13.0,94,0.04,,,-99.99,Weather View 32 v60,2013-10-06 02:55:00,
2013-10-05 22:05:00,50.0,48.3,29.79,SW,225,0.0,13.0,94,0.01,,,-99.99,Weather View 32 v60,2013-10-06 03:05:00,
2013-10-05 22:10:00,50.0,48.3,29.79,SW,225,1.0,13.0,94,0.01,,,-99.99,Weather View 32 v60,2013-10-06 03:10:00,
2013-10-05 22:20:00,50.0,48.3,29.79,West,270,3.0,13.0,94,0.00,,,-99.99,Weather View 32 v60,2013-10-06 03:20:00,
2013-10-05 22:25:00,50.0,48.3,29.79,NNW,338,1.0,11.0,94,0.00,,,-99.99,Weather View 32 v60,2013-10-06 03:25:00,
2013-10-05 22:30:00,50.0,48.3,29.79,NNW,338,3.0,11.0,94,0.00,,,-99.99,Weather View 32 v60,2013-10-06 03:30:00,
2013-10-05 22:35:00,50.0,48.3,29.79,WSW,248,0.0,10.0,94,0.00,,,-99.99,Weather View 32 v60,2013-10-06 03:35:00,
2013-10-05 22:40:00,50.0,48.3,29.79,SW,225,1.0,10.0,94,0.00,,,-99.99,Weather View 32 v60,2013-10-06 03:40:00,
2013-10-05 22:45:00,50.0,48.3,29.79,WNW,292,1.0,6.0,94,0.00,,,-99.99,Weather View 32 v60,2013-10-06 03:45:00,
2013-10-05 22:50:00,50.0,48.3,29.79,WNW,292,1.0,5.0,94,0.00,,,-99.99,Weather View 32 v60,2013-10-06 03:50:00,
2013-10-05 23:00:00,50.0,48.3,29.78,North,0,3.0,5.0,94,0.00,,,-99.99,Weather View 32 v60,2013-10-06 04:00:00,
2013-10-05 23:05:00,50.0,48.3,29.78,West,270,1.0,5.0,94,0.00,,,-99.99,Weather View 32 v60,2013-10-06 04:05:00,
2013-10-05 23:10:00,50.0,48.3,29.78,NNW,338,5.0,5.0,94,0.00,,,-99.99,Weather View 32 v60,2013-10-06 04:10:00,
2013-10-05 23:15:00,50.0,48.3,29.78,NW,315,3.0,6.0,94,0.00,,,-99.99,Weather View 32 v60,2013-10-06 04:15:00,
2013-10-05 23:20:00,50.0,48.3,29.78,WNW,292,1.0,6.0,94,0.00,,,-99.99,Weather View 32 v60,2013-10-06 04:20:00,
2013-10-05 23:25:00,50.0,48.3,29.78,North,0,2.0,6.0,94,0.00,,,-99.99,Weather View 32 v60,2013-10-06 04:25:00,
2013-10-05 23:30:00,50.0,48.3,29.78,NNW,338,2.0,6.0,94,0.00,,,-99.99,Weather View 32 v60,2013-10-06 04:30:00,
2013-10-05 23:35:00,50.0,48.3,29.77,WSW,248,1.0,6.0,94,0.00,,,-99.99,Weather View 32 v60,2013-10-06 04:35:00,
2013-10-05 23:40:00,50.0,48.3,29.77,North,0,3.0,6.0,94,0.00,,,-99.99,Weather View 32 v60,2013-10-06 04:40:00,
2013-10-05 23:45:00,50.0,48.3,29.77,NNW,338,2.0,6.0,94,0.00,,,-99.99,Weather View 32 v60,2013-10-06 04:45:00,
2013-10-05 23:51:00,50.0,48.3,29.77,WNW,292,3.0,6.0,94,0.00,,,-99.99,Weather View 32 v60,2013-10-06 04:51:00,